Flag Weather past 2 weeks in Letterkenny, Ireland

Now
37 °F

Chilly.


Feels Like: 33 °F
Forecast: 34 / 43 °F
Wind: 5 mph from East

Location: Castlederg

Current Time: Nov 27, 2014 at 12:57:49 AM

Latest Report: Nov 27, 2014 at 12:00 AM


Visibility: 1 mi

Pressure: 29.72 "Hg

Humidity: 100%

Dew point: 37 °F

Location of LetterkennyLocation

Historic Weather in Letterkenny — Graph

°F

Letterkenny temperature yesterday

Maximum temperature yesterday: 43 °F (at 2:00 PM)
Minimum temperature yesterday: 36 °F (at 10:00 PM)
Average temperature yesterday: 40 °F

Past Weeks' High & Low Weather Summary

 TemperatureHumidityPressure
High53 °F (Nov 14, 5:00 AM)100% (Nov 11, 11:00 PM)30.28 "Hg (Nov 11, 11:00 PM)
Low30 °F (Nov 25, 7:00 AM)73% (Nov 18, 3:00 PM)28.97 "Hg (Nov 14, 6:00 AM)
Average45 °F94%29.75 "Hg
* Reported Nov 11 11:00 PM — Nov 26 11:00 PM, Letterkenny, Weather by CustomWeather, © 2014

Note: Actual official high and low records may vary slightly from our data, if they occured in-between our weather recording intervals... More about our weather records

Advertising

Letterkenny weather history for previous 24 hours

 ConditionsComfort  
Time TempWeatherWind HumidityBarometerVisibility
11:00 PM
Nov 26
37 °FDuststorm.6 mph100%29.75 "Hg1 mi
10:00 PM36 °FDuststorm.5 mph100%29.77 "Hg0 mi
9:00 PM37 °FDuststorm.2 mph100%29.79 "Hg0 mi
8:00 PM38 °FDuststorm.5 mph100%29.80 "Hg0 mi
7:00 PM39 °FDuststorm.6 mph100%29.82 "Hg0 mi
6:00 PM38 °FDuststorm.1 mph100%29.83 "Hg0 mi
5:00 PM38 °FDrizzle. Overcast.3 mph100%29.85 "Hg0 mi
4:00 PM40 °FDuststorm.2 mph100%29.87 "Hg0 mi
3:00 PM41 °FDuststorm.2 mph100%29.88 "Hg0 mi
2:00 PM43 °FFog.3 mph100%29.90 "Hg1 mi
1:00 PM42 °FFog.3 mph100%29.92 "Hg4 mi
12:00 PM41 °FQuite cool.2 mph100%29.95 "Hg1 mi
11:00 AM40 °FDuststorm.3 mph100%29.97 "Hg1 mi
10:00 AM39 °FDuststorm.1 mph100%29.98 "Hg0 mi
9:00 AM38 °FChilly.1 mph100%29.98 "Hg1 mi
8:00 AM37 °FDuststorm.5 mph100%29.99 "Hg1 mi
7:00 AM40 °FDuststorm.3 mph100%30.00 "Hg0 mi
6:00 AM40 °FDuststorm.3 mph100%29.99 "Hg0 mi
5:00 AM40 °FDuststorm.1 mph100%30.01 "Hg0 mi
4:00 AM40 °FFog.2 mph100%30.02 "Hg1 mi
3:00 AM40 °FFog.3 mph100%30.03 "Hg2 mi
2:00 AM42 °FFog.1 mph100%30.04 "Hg3 mi
1:00 AM42 °FFog.5 mph100%30.05 "Hg2 mi
12:00 AM42 °FFog.3 mph100%30.07 "Hg3 mi
Weather by CustomWeather, © 2014

See weather overviewHow to use our weather pages